Flag for U.S.A. Weather past 2 weeks in Hereford, Texas, U.S.A.

54 °F

Low clouds.

Feels Like: 49 °F
Forecast: 34 / 62 °F
Wind: 17 mph from Southwest

Location: Clovis Municipal

Current Time: Nov 26, 2015 at 3:11:42 AM

Latest Report: Nov 26, 2015 at 2:35 AM

Visibility: 6 mi

Pressure: 29.97 "Hg (26.06 "Hg at 1167m altitude)

Humidity: 82%

Dew point: 48 °F

Location of HerefordLocation

Historic Weather in Hereford — Graph


Hereford temperature yesterday

Maximum temperature yesterday: 70 °F (at 12:35 PM)
Minimum temperature yesterday: 36 °F (at 5:55 AM)
Average temperature yesterday: 52 °F

Past Weeks' High & Low Weather Summary

High72 °F (Nov 16, 1:15 PM)100% (Nov 15, 10:15 AM)30.48 "Hg (Nov 15, 10:15 AM)
Low25 °F (Nov 21, 5:55 AM)16% (Nov 24, 3:35 PM)29.44 "Hg (Nov 16, 4:35 PM)
Average44 °F55%30.03 "Hg
* Reported Nov 11 1:15 AM — Nov 26 1:55 AM, Hereford, Weather by CustomWeather, © 2015

Note: Actual official high and low records may vary slightly from our data, if they occured in-between our weather recording intervals... More about our weather records


Hereford weather history for previous 24 hours

Time TempWeatherWind HumidityBarometerVisibility
1:55 AM
Thu, Nov 26
52 °FLow clouds.13 mph88%29.96 "Hg9 mi
1:35 AM54 °FPassing clouds.12 mph82%29.96 "Hg10 mi
1:15 AM54 °FPassing clouds.16 mph77%29.96 "Hg10 mi
12:35 AM54 °FClear.15 mph77%29.95 "Hg10 mi
11:55 PM
Wed, Nov 25
55 °FClear.16 mph67%29.96 "Hg10 mi
11:35 PM55 °FClear.9 mph63%29.96 "Hg10 mi
10:55 PM54 °FClear.7 mph54%29.97 "Hg10 mi
10:35 PM55 °FClear.6 mph51%29.97 "Hg10 mi
9:55 PM54 °FClear.10 mph54%29.96 "Hg10 mi
9:15 PM54 °FClear.9 mph51%29.95 "Hg10 mi
8:55 PM55 °FClear.10 mph44%29.95 "Hg10 mi
8:35 PM55 °FClear.10 mph41%29.95 "Hg10 mi
8:15 PM55 °FClear.10 mph38%29.94 "Hg10 mi
7:55 PM54 °FClear.8 mph41%29.94 "Hg10 mi
7:35 PM54 °FClear.8 mph38%29.94 "Hg10 mi
7:15 PM54 °FClear.8 mph38%29.94 "Hg10 mi
6:35 PM55 °FClear.No wind36%29.93 "Hg10 mi
5:35 PM57 °FSunny.5 mph33%29.91 "Hg10 mi
5:15 PM57 °FSunny.5 mph33%29.91 "Hg10 mi
4:55 PM59 °FSunny.5 mph34%29.90 "Hg10 mi
4:35 PM59 °FSunny.7 mph34%29.90 "Hg10 mi
4:15 PM61 °FSunny.10 mph27%29.91 "Hg10 mi
3:55 PM64 °FSunny.13 mph22%29.90 "Hg10 mi
3:35 PM66 °FSunny.15 mph22%29.90 "Hg10 mi
2:55 PM68 °FSunny.16 mph21%29.88 "Hg10 mi
2:35 PM70 °FSunny.17 mph20%29.88 "Hg10 mi
2:15 PM70 °FSunny.20 mph20%29.89 "Hg10 mi
1:55 PM70 °FSunny.17 mph20%29.90 "Hg10 mi
1:35 PM70 °FSunny.18 mph21%29.90 "Hg10 mi
1:15 PM70 °FSunny.17 mph21%29.90 "Hg10 mi
12:55 PM70 °FSunny.20 mph21%29.91 "Hg10 mi
12:35 PM70 °FSunny.17 mph23%29.91 "Hg10 mi
12:15 PM66 °FSunny.17 mph26%29.92 "Hg10 mi
11:55 AM66 °FSunny.15 mph26%29.93 "Hg10 mi
11:35 AM64 °FSunny.21 mph28%29.94 "Hg10 mi
11:15 AM63 °FSunny.16 mph30%29.94 "Hg10 mi
10:55 AM61 °FSunny.17 mph31%29.95 "Hg10 mi
10:35 AM59 °FSunny.14 mph31%29.94 "Hg10 mi
10:15 AM57 °FSunny.13 mph31%29.95 "Hg10 mi
9:55 AM57 °FSunny.13 mph33%29.95 "Hg10 mi
9:35 AM54 °FSunny.10 mph35%29.95 "Hg10 mi
9:15 AM52 °FSunny.12 mph38%29.94 "Hg10 mi
8:55 AM48 °FSunny.14 mph43%29.95 "Hg10 mi
8:35 AM46 °FSunny.13 mph43%29.93 "Hg10 mi
8:15 AM45 °FSunny.12 mph46%29.93 "Hg10 mi
7:55 AM39 °FSunny.14 mph52%29.93 "Hg10 mi
7:35 AM41 °FSunny.12 mph53%29.92 "Hg10 mi
7:15 AM39 °FClear.14 mph56%29.91 "Hg10 mi
6:55 AM36 °FClear.9 mph60%29.91 "Hg10 mi
6:35 AM37 °FClear.7 mph60%29.91 "Hg10 mi
6:15 AM39 °FClear.9 mph56%29.91 "Hg10 mi
5:55 AM36 °FClear.7 mph60%29.90 "Hg10 mi
5:35 AM37 °FClear.8 mph60%29.90 "Hg10 mi
5:15 AM37 °FClear.10 mph56%29.91 "Hg10 mi
4:55 AM37 °FClear.9 mph60%29.90 "Hg10 mi
4:35 AM37 °FClear.6 mph56%29.90 "Hg10 mi
4:15 AM37 °FClear.5 mph56%29.90 "Hg10 mi
3:55 AM39 °FClear.3 mph56%29.90 "Hg10 mi
3:35 AM37 °FClear.No wind56%29.91 "Hg10 mi
3:15 AM39 °FClear.8 mph52%29.90 "Hg10 mi
Weather by CustomWeather, © 2015

See weather overviewHow to use our weather pages